[[{"header":{"parameterUnit":"m.s-1","parameterCategory":1,"la1":30.2991,"la2":30.254,"lo1":-89.0895,"lo2":-89.0444,"dy":0.0017,"dx":0.0017,"nx":28,"ny":28,"refTime":"2025-03-11T21:00:00:Z","depth":0,"parameterNumber":2,"parameterNumberName":"U-component_of_WINDS"},"data":[0,0,0,0,0,0,0,0,0,0,0,0,0,0,0,0,0,0,0,0,0,0,0,0,0,0,0,0,0,0,0,0,0,0,0,0,0,0,0,0,0,0,0,0,0,0,0,0,0,0,0,0,0,0,0,0,0,0,0.0642,0.0642,0,0.0722,0.0723,0.0724,0.0798,0.0799,0.08,0.08,0.0887,0.0888,0.089,0,0,0,0,0,0,0,0,0,0,0,0,0,0.0554,0.0555,0.0641,0.0642,0.0643,0.0722,0.0723,0.0724,0.0798,0.0799,0.08,0.0801,0.0886,0.0888,0.089,0,0,0,0,0,0,0,0,0,0,0,0,0,0.0609,0.0556,0.0641,0.0689,0.0694,0.0722,0.0723,0.0725,0.0797,0.0799,0.08,0.0801,0.0886,0.0888,0.089,0.0878,0,0,0.0897,0.0898,0,0,0,0,0,0,0,0,0.0606,0.0612,0.0681,0.0686,0.0692,0.0751,0.0724,0.0776,0.0797,0.0758,0.08,0.0802,0.0841,0.0847,0.0859,0.0882,0.0885,0.0897,0.0898,0.0899,0.09,0,0,0,0,0,0,0,0.0602,0.0609,0.0674,0.0682,0.0689,0.0708,0.0717,0.0734,0.0791,0.0762,0.0767,0.0776,0.0844,0.0857,0.0862,0.0887,0.0897,0.0899,0.09,0.0901,0.0905,0.0903,0,0,0,0,0,0,0.059,0.0606,0.0671,0.0676,0.0651,0.0709,0.0719,0.0731,0.0791,0.0802,0.0775,0.0779,0.0852,0.0859,0.0865,0.0856,0.0899,0.0901,0.0903,0.0906,0.0904,0.0903,0,0,0,0,0,0,0.0588,0.0595,0.0668,0.0642,0.0653,0.0709,0.0722,0.0732,0.0745,0.0801,0.0812,0.0777,0.0854,0.0862,0.0874,0.086,0.0902,0.0904,0.0907,0.0905,0.0904,0.0836,0,0,0,0,0,0,0.0585,0.0594,0.0589,0.0642,0.0654,0.0674,0.0721,0.0732,0.0748,0.0754,0.0806,0.0816,0.0855,0.087,0.0876,0.0864,0.0906,0.0909,0.0906,0.0904,0.084,0.0832,0.0825,0,0,0,0,0,0.0582,0.0567,0.0588,0.0596,0.0649,0.0673,0.068,0.0725,0.0746,0.0743,0.0779,0.0814,0.086,0.0871,0.0878,0.0866,0.091,0.0907,0.0904,0.0843,0.0833,0.0825,0,0,0,0,0,0,0.0513,0.0575,0.0599,0.0601,0.0631,0.0685,0.0682,0.0713,0.0739,0.0744,0.0799,0.081,0.0816,0.0842,0.0853,0.0858,0.089,0.0888,0.0841,0.0832,0.0825,0.0819,0.0908,0,0,0,0,0,0.0497,0.0511,0.0565,0.0561,0.0575,0.0625,0.0638,0.0669,0.0703,0.0717,0.0754,0.0786,0.0808,0.0822,0.0845,0.0843,0.0857,0.0839,0.0832,0.0825,0.0824,0.0827,0.082,0.0894,0.0894,0.0894,0,0,0.0466,0.0502,0.0507,0.0548,0.0575,0.0589,0.0636,0.0648,0.066,0.0719,0.0733,0.0761,0.0801,0.0807,0.0811,0.0829,0.0806,0.0822,0.0816,0.0819,0.0823,0.0816,0.081,0.0892,0.0892,0.0893,0,0,0.0417,0.0445,0.0445,0.0471,0.0511,0.0545,0.0545,0.0595,0.0615,0.063,0.0675,0.069,0.0726,0.0753,0.0771,0.0732,0.0767,0.0739,0.0702,0.0704,0.0698,0.0693,0.0681,0.0675,0.0737,0.0736,0.0736,0,0.0374,0.0396,0.0442,0.0452,0.0469,0.0522,0.0524,0.0547,0.0593,0.0605,0.0623,0.067,0.0701,0.0714,0.0705,0.0717,0.0721,0.0734,0.0695,0.069,0.0687,0.0675,0.067,0.0733,0.0733,0.0734,0.0734,0,0.0341,0.0356,0.0352,0.0393,0.041,0.0416,0.0464,0.0476,0.0506,0.0538,0.0553,0.0591,0.0624,0.0629,0.0659,0.0647,0.0657,0.0684,0.0718,0.0675,0.0666,0.0662,0.0728,0.0729,0.073,0.0731,0,0,0.0252,0.0319,0.0317,0.0337,0.0385,0.0398,0.0406,0.0437,0.0446,0.0476,0.0486,0.0515,0.0541,0.0562,0.0595,0.0597,0.0566,0.0625,0.0627,0.0613,0.0557,0.0536,0.0531,0.0588,0.0587,0.0587,0.0554,0,0.0212,0.0229,0.0271,0.0276,0.0291,0.0342,0.035,0.0381,0.0411,0.0429,0.0463,0.0483,0.0515,0.0528,0.0532,0.0568,0.0555,0.0571,0.0599,0.06,0.0589,0.0526,0.0504,0.0471,0.055,0.055,0.0549,0,0.0167,0.0193,0.0199,0.0247,0.0255,0.0261,0.0293,0.0309,0.0346,0.0368,0.0391,0.0427,0.0441,0.0471,0.0491,0.0501,0.0515,0.0535,0.0535,0.054,0.0573,0.0531,0.0462,0.0457,0.0543,0.0544,0.0544,0,0.0103,0.0139,0.0148,0.0164,0.0219,0.0223,0.0246,0.0284,0.03,0.0328,0.034,0.0369,0.0386,0.0408,0.0453,0.047,0.0469,0.0502,0.0489,0.0488,0.0488,0.0487,0.0421,0.0494,0.0494,0.0494,0.0494,0,0.0055,0.0057,0.012,0.0125,0.013,0.0178,0.0182,0.0211,0.0244,0.0257,0.0303,0.0314,0.0371,0.039,0.0425,0.0437,0.0444,0.0464,0.0473,0.046,0.0458,0.0471,0.0475,0.0493,0.0493,0.0493,0.0493,0,-0.0016,0.0026,0.0039,0.0091,0.0104,0.0105,0.015,0.0158,0.019,0.0206,0.0213,0.0265,0.0289,0.0335,0.0373,0.0396,0.0402,0.0417,0.0389,0.0395,0.038,0.0381,0.0321,0.0316,0.039,0.0389,0.0389,0,-0.0049,-0.0046,0.0005,0.0017,0.0038,0.0056,0.0073,0.0121,0.0136,0.0178,0.0182,0.0209,0.0234,0.0271,0.0313,0.0342,0.036,0.0336,0.0364,0.0352,0.0361,0.0361,0.0362,0.0331,0.033,0.0329,0.0328,0,-0.0111,-0.0091,-0.007,-0.0041,-0.0023,0.0002,0.003,0.0037,0.0092,0.0107,0.0132,0.0151,0.0189,0.0216,0.0251,0.0278,0.0312,0.0318,0.0317,0.0305,0.0289,0.0299,0.0373,0.032,0.0321,0.0321,0.0322,0.0322,-0.0163,-0.0158,-0.0121,-0.0098,-0.0073,-0.0048,-0.0038,-0.0004,0.0017,0.0051,0.0078,0.0101,0.0139,0.019,0.0214,0.0234,0.025,0.0248,0.0248,0.0247,0.0242,0.0284,0.024,0.024,0.0241,0.0241,0.0241,0,-0.0222,-0.0195,-0.0176,-0.0139,-0.0121,-0.0092,-0.0059,-0.0046,-0.0027,0.0005,0.0028,0.0057,0.0084,0.0128,0.0159,0.0166,0.0183,0.0173,0.0174,0.0179,0.0225,0.0223,0.0159,0.0159,0.0159,0.0159,0.0159,0.0159,-0.025,-0.0239,-0.0214,-0.019,-0.0163,-0.0141,-0.0125,-0.0102,-0.0076,-0.0046,-0.0024,0.0004,0.0041,0.0075,0.0101,0.0114,0.0124,0.0109,0.0126,0.0168,0.0176,0.0183,0.0182,0.011,0.011,0.0079,0.0079,0.0079]},{"header":{"parameterUnit":"m.s-1","parameterCategory":1,"la1":30.2991,"la2":30.254,"lo1":-89.0895,"lo2":-89.0444,"dy":0.0017,"dx":0.0017,"nx":28,"ny":28,"refTime":"2025-03-11T21:00:00:Z","depth":0,"parameterNumber":3,"parameterNumberName":"V-component_of_WINDS"},"data":[0,0,0,0,0,0,0,0,0,0,0,0,0,0,0,0,0,0,0,0,0,0,0,0,0,0,0,0,0,0,0,0,0,0,0,0,0,0,0,0,0,0,0,0,0,0,0,0,0,0,0,0,0,0,0,0,0,0,1.2656,1.2656,0,1.2684,1.2685,1.2685,1.275,1.2751,1.2752,1.2754,1.278,1.278,1.2779,0,0,0,0,0,0,0,0,0,0,0,0,0,1.2654,1.2653,1.2656,1.2656,1.2657,1.2684,1.2685,1.2685,1.275,1.2751,1.2753,1.2754,1.278,1.278,1.2779,0,0,0,0,0,0,0,0,0,0,0,0,0,1.2666,1.2653,1.2656,1.2692,1.2696,1.2684,1.2685,1.2685,1.2749,1.2751,1.2753,1.2755,1.2781,1.278,1.2779,1.2734,0,0,1.2776,1.2776,0,0,0,0,0,0,0,0,1.2665,1.2666,1.2686,1.269,1.2694,1.2716,1.2694,1.2701,1.2749,1.2729,1.2754,1.2756,1.2757,1.2758,1.2759,1.2735,1.2736,1.2776,1.2776,1.2776,1.2775,0,0,0,0,0,0,0,1.2664,1.2665,1.2667,1.2687,1.2691,1.2706,1.271,1.2696,1.2731,1.2731,1.2735,1.2738,1.2759,1.276,1.276,1.2737,1.2776,1.2776,1.2775,1.2775,1.2674,1.2672,0,0,0,0,0,0,1.2658,1.2664,1.2666,1.2668,1.2684,1.2704,1.2709,1.2706,1.2732,1.2737,1.2736,1.2741,1.276,1.2761,1.2761,1.2708,1.2776,1.2775,1.2774,1.2677,1.2674,1.2672,0,0,0,0,0,0,1.2658,1.2658,1.2665,1.2667,1.2669,1.2702,1.2699,1.2706,1.2707,1.2736,1.2742,1.273,1.2762,1.2762,1.274,1.271,1.2774,1.2774,1.2679,1.2676,1.2673,1.2602,0,0,0,0,0,0,1.2658,1.2657,1.2641,1.2666,1.2669,1.2644,1.2697,1.2705,1.2705,1.2712,1.2732,1.2737,1.2763,1.2741,1.2739,1.271,1.2773,1.2682,1.2678,1.2674,1.2607,1.2596,1.2587,0,0,0,0,0,1.2657,1.262,1.264,1.264,1.265,1.2642,1.2643,1.2675,1.2703,1.2686,1.2705,1.2737,1.2714,1.2738,1.2736,1.2706,1.2684,1.2679,1.2674,1.2611,1.2598,1.2588,0,0,0,0,0,0,1.259,1.2624,1.2647,1.2617,1.2626,1.2653,1.2633,1.2661,1.2662,1.2667,1.2706,1.271,1.2681,1.2692,1.2718,1.2663,1.2704,1.2698,1.2656,1.2645,1.2635,1.2632,1.2772,0,0,0,0,0,1.2572,1.2564,1.2594,1.2564,1.2568,1.2599,1.2597,1.2621,1.2632,1.2636,1.2653,1.2661,1.2656,1.2651,1.2648,1.261,1.2613,1.2588,1.2579,1.2571,1.2564,1.2542,1.253,1.2656,1.2656,1.2656,0,0,1.2534,1.2551,1.2544,1.2551,1.2561,1.255,1.2602,1.2589,1.2581,1.2634,1.2612,1.2625,1.2637,1.2606,1.2593,1.2614,1.2531,1.2564,1.2558,1.2556,1.2536,1.2524,1.2513,1.2652,1.2653,1.2653,0,0,1.2458,1.2472,1.2448,1.2457,1.2471,1.2493,1.2487,1.2509,1.252,1.25,1.2538,1.2529,1.252,1.2526,1.2528,1.2454,1.2482,1.2452,1.24,1.2378,1.2368,1.2359,1.233,1.232,1.2446,1.2446,1.2446,0,1.2408,1.2395,1.2431,1.2415,1.2416,1.2465,1.2439,1.2446,1.2458,1.2457,1.2481,1.2469,1.2481,1.245,1.2432,1.2433,1.2426,1.2448,1.2367,1.2359,1.2351,1.2323,1.2313,1.2442,1.2443,1.2443,1.2443,0,1.2331,1.2321,1.23,1.2311,1.231,1.2289,1.2321,1.2316,1.234,1.2358,1.2335,1.2351,1.2351,1.2346,1.2369,1.2318,1.233,1.236,1.2402,1.2334,1.2309,1.2299,1.2436,1.2438,1.2439,1.244,0,0,1.2213,1.2244,1.2235,1.224,1.226,1.2252,1.2233,1.2234,1.2227,1.2234,1.2217,1.2208,1.2235,1.2237,1.2262,1.2243,1.2179,1.2275,1.2275,1.2254,1.2121,1.2096,1.2083,1.22,1.2198,1.2197,1.2119,0,1.2139,1.2109,1.2141,1.2103,1.2093,1.2139,1.2122,1.2131,1.2148,1.214,1.2159,1.215,1.2189,1.219,1.2173,1.2191,1.2153,1.2197,1.2182,1.2181,1.2174,1.207,1.2045,1.197,1.2109,1.2108,1.2107,0,1.205,1.2052,1.2013,1.2034,1.2031,1.2015,1.2017,1.2011,1.2022,1.2035,1.2037,1.2067,1.2048,1.209,1.2063,1.2093,1.2089,1.2096,1.2094,1.2091,1.2137,1.2062,1.1948,1.1935,1.2092,1.2093,1.2094,0,1.1963,1.1957,1.1933,1.1936,1.196,1.1947,1.1957,1.197,1.1968,1.197,1.1968,1.1968,1.1966,1.1965,1.1993,1.2022,1.1961,1.2007,1.1969,1.1968,1.1952,1.1952,1.1832,1.1955,1.1955,1.1955,1.1955,0,1.1876,1.1849,1.1894,1.1878,1.185,1.1887,1.1857,1.1871,1.1882,1.1869,1.191,1.1896,1.1935,1.1926,1.1948,1.192,1.192,1.1929,1.1934,1.1923,1.1922,1.1919,1.1924,1.1952,1.1953,1.1953,1.1954,0,1.1773,1.1802,1.1778,1.1803,1.1808,1.1786,1.1807,1.1792,1.1812,1.1795,1.1793,1.1823,1.1814,1.1842,1.1837,1.1852,1.1811,1.1827,1.1807,1.1811,1.1771,1.1773,1.1642,1.1626,1.1761,1.176,1.1759,0,1.1714,1.1694,1.1717,1.1712,1.1719,1.171,1.1708,1.1744,1.1739,1.175,1.1734,1.1728,1.1725,1.1707,1.1728,1.1724,1.1738,1.1692,1.1737,1.1726,1.1733,1.1732,1.1729,1.1682,1.168,1.1679,1.1678,0,1.1605,1.162,1.1616,1.1616,1.1612,1.1614,1.1619,1.1612,1.165,1.1643,1.1634,1.1632,1.1627,1.1619,1.162,1.1628,1.1658,1.1664,1.1654,1.1641,1.1629,1.1632,1.1778,1.1666,1.1667,1.1668,1.1669,1.1669,1.152,1.1504,1.1517,1.1511,1.1518,1.1521,1.1508,1.1526,1.152,1.1519,1.1541,1.1526,1.1537,1.154,1.1546,1.1534,1.1555,1.1542,1.1538,1.1534,1.1525,1.1634,1.1535,1.1535,1.1536,1.1536,1.1536,0,1.141,1.1421,1.1415,1.142,1.1414,1.1445,1.1451,1.1444,1.1431,1.1439,1.1435,1.1424,1.1417,1.1437,1.1432,1.1419,1.1432,1.1416,1.1416,1.1417,1.1509,1.1516,1.1405,1.1405,1.1405,1.1405,1.1405,1.1405,1.1352,1.1326,1.1343,1.132,1.1331,1.1318,1.1318,1.1321,1.1327,1.1313,1.1307,1.1321,1.1333,1.1329,1.1324,1.133,1.1325,1.1303,1.1313,1.1398,1.1411,1.1423,1.1429,1.1302,1.1302,1.1222,1.1221,1.122]}]]